Weather Roundup
Issued by NWS

Home | Current Version | Previous Version | Graphics & Text | Print | Product List | Glossary Off
Versions: 1 2 3 4 5 6 7 8 9 10 11 12 13 14 15 16 17 18 19 20 21 22 23 24 25 26 27 28 29 30 31 32 33 34 35 36 37 38 39 40 41 42 43 44 45 46 47 48 49 50

000
NZUS93 KARX 041810
HRRWXR

CURRENT HOURLY OBSERVATIONS ACROSS
MUCH OF THE UPPER MISSISSIPPI VALLEY
NATIONAL WEATHER SERVICE LA CROSSE WI
100 PM CDT FRI SEP 04 2015


...SOUTHEAST MINNESOTA...


CITY           SKY/WX    TMP DP  RH WIND       PRES   REMARKS
ROCHESTER      SUNNY     85  73  67 SE12      29.98S HX  91
ROCHESTER/MAYO FAIR      83  71  68 E12       29.97S
WINONA         SUNNY     86  72  62 E10       29.97S HAZE    HX  92
AUSTIN         SUNNY     84  73  70 SE9       29.95S HX  91
ALBERT LEA     MOSUNNY   86  72  62 SE14      29.93F HX  92
DODGE CENTER   SUNNY     82  72  69 SE8       29.96S
PRESTON        MOSUNNY   83  70  63 SE8       29.99S
OWATONNA       SUNNY     86  72  62 SE12      29.93F HX  92
FARIBAULT      SUNNY     84  73  70 SE10      29.93F HX  91
$$

...ELSEWHERE IN MINNESOTA...


CITY           SKY/WX    TMP DP  RH WIND       PRES   REMARKS
MINNEAPOLIS    MOSUNNY   85  72  65 E10       29.92S HX  91
INTNL FALLS    MOSUNNY   82  68  62 S8G18     29.92F
DULUTH         MOSUNNY   74  64  71 SE13      30.01R
RED WING       SUNNY     84  70  61 SE13      29.93F
REDWOOD FALLS  PTSUNNY   86  69  56 S10       29.88F HX  90
MANKATO        SUNNY     86  73  66 SE13      29.90S HX  93
WORTHINGTON    PTSUNNY   79  68  69 S15       29.92S
FAIRMONT       MOSUNNY   84  70  61 S8        29.92R
$$

...SOUTHWEST WISCONSIN...


CITY           SKY/WX    TMP DP  RH WIND       PRES   REMARKS
LA CROSSE      SUNNY     86  71  60 SE8       29.98F HX  91
PRAIRIE DU CHI SUNNY     86  68  54 SE5       29.98F
BOSCOBEL       SUNNY     87  71  58 S5        29.99F HX  93
LONE ROCK      MOSUNNY   83  71  67 SE6       30.01F
PLATTEVILLE    SUNNY     84  73  70 E6        30.01F HX  90
FORT MC COY    SUNNY     82  67  59 E6        30.01F
CAMP DOUGLAS   MOSUNNY   79  73  83 SE6       30.03S
VIROQUA        FAIR      83  72  67 SE6       30.02F
WIS DELLS      SUNNY     78  65  64 SE3       30.04S
$$

...ELSEWHERE IN WISCONSIN...


CITY           SKY/WX    TMP DP  RH WIND       PRES   REMARKS
MILWAUKEE      MOSUNNY   76  66  71 VRB7      30.03F
MADISON        PTSUNNY   79  68  69 E5        30.03F
GREEN BAY      CLOUDY    76  66  71 VRB3      30.04F
EAU CLAIRE     SUNNY     82  69  64 SE10      29.98F
BLACK RVR FLS  FAIR      82  66  58 E7        30.00F
MEDFORD        SUNNY     75  67  76 SE7       30.06S
WAUSAU         SUNNY     76  66  71 VRB5      30.04F
WIS RAPIDS     MOSUNNY   74  64  71 E7        30.06F
MARSHFIELD     PTSUNNY   73  64  73 E7        30.06F
RICE LAKE      MOSUNNY   79  68  69 E12       30.01F
$$

...NORTHEAST IOWA...


CITY           SKY/WX    TMP DP  RH WIND       PRES   REMARKS
DECORAH        SUNNY     84  72  65 S8        29.98S
MASON CITY     SUNNY     86  73  65 S13       29.96S HX  93
CHARLES CITY   SUNNY     86  75  70 SE12      29.97S HX  95
OELWEIN        MOSUNNY   86  73  66 SE8       29.99F HX  93
$$

...ELSEWHERE IN IOWA...


CITY           SKY/WX    TMP DP  RH WIND       PRES   REMARKS
DES MOINES     PTSUNNY   87  69  54 SW12      29.95F HX  91
IOWA CITY      SUNNY     88  69  53 S10       29.99F HX  92
FORT DODGE     PTSUNNY   86  72  62 S10       29.94S HX  92
$$

...NORTHERN ILLINOIS...


CITY           SKY/WX    TMP DP  RH WIND       PRES   REMARKS
CHICAGO-OHARE  MOSUNNY   82  68  62 VRB3      30.02F
CHICAGO-MIDWAY MOSUNNY   85  68  56 E12       30.01F
MOLINE         PTSUNNY   91  70  49 CALM      29.99F HX  96
ROCKFORD       PTSUNNY   84  71  65 VRB3      30.03F
PEORIA         SUNNY     93  68  43 S8        30.01F HX  97
$$

NOTE: "FAIR" INDICATES FEW OR NO CLOUDS BELOW 12,000 FEET WITH NO
SIGNIFICANT WEATHER AND/OR OBSTRUCTIONS TO VISIBILITY. WIND
SPEEDS ARE IN MILES-PER-HOUR.



USA.gov is the U.S. government's official web portal to all federal, state and local government web resources and services.